Location: Asheville, NC
(35.6000°N, 82.5500°W)
Time: 16:30:04
(UTC-05:00)

JUGNU - Pass Details

Date: 03 January 2018
Orbit: 837 x 864 km, 20.0° (Epoch: 17 January)

Event Time Altitude Azimuth Distance (km) Brightness Sun altitude
Rises 19:57:14 0° 236° (SW) 3,420 ? -29.2°
Reaches altitude 10° 20:00:43 10° 217° (SW) 2,483 ? -29.9°
Maximum altitude 20:04:25 17° 178° (S) 2,029 ? -30.7°
Enters shadow 20:04:29 17° 177° (S) 2,029 ? -30.7°
